FW6302 Weather Reports


time (UTC)temp
F
wind
direction
speed
knots
gust
knots
rain 1hr
in
rain 24hr
in
rain mn
in
humidity
%
barometer
mb
20260504205100 63 326 14.8 26.1 0.00 0.00 0.00 38 1006.8
20260504204613 64 291 12.2 25.2 0.00 0.00 0.00 37 1006.6
20260504204055 63 303 11.3 25.2 0.00 0.00 0.00 37 1006.6
20260504203557 63 350 14.8 25.2 0.00 0.00 0.00 39 1006.4
20260504203156 63 331 17.4 26.1 0.00 0.00 0.00 37 1006.4
20260504202554 64 18 12.2 26.9 0.00 0.00 0.00 37 1006.3
20260504202053 64 333 15.6 26.9 0.00 0.00 0.00 36 1006.2
20260504201552 65 323 14.8 25.2 0.00 0.00 0.00 37 1006.1
20260504201052 64 350 14.8 25.2 0.00 0.00 0.00 38 1006.1
20260504200552 64 344 14.8 29.5 0.00 0.00 0.00 36 1006.0
20260504200051 64 313 16.5 29.5 0.00 0.00 0.00 36 1006.0
20260504195550 65 352 13.0 29.5 0.00 0.00 0.00 35 1005.9
20260504195052 65 340 16.5 28.7 0.00 0.00 0.00 36 1005.7
20260504194549 65 6 11.3 27.8 0.00 0.00 0.00 38 1005.8
20260504194051 65 309 14.8 27.8 0.00 0.00 0.00 35 1005.7
20260504193549 66 340 17.4 28.7 0.00 0.00 0.00 35 1005.6
20260504193051 65 345 17.4 28.7 0.00 0.00 0.00 35 1005.5
20260504192547 66 311 11.3 25.2 0.00 0.00 0.00 34 1005.4
20260504192047 66 348 16.5 25.2 0.00 0.00 0.00 34 1005.5
20260504191552 66 338 15.6 22.6 0.00 0.00 0.00 34 1005.5
20260504191047 66 322 11.3 23.5 0.00 0.00 0.00 35 1005.5
20260504190547 66 354 13.9 24.3 0.00 0.00 0.00 35 1005.5
20260504190052 67 53 17.4 23.5 0.00 0.00 0.00 33 1005.5
20260504185545 67 333 9.6 24.3 0.00 0.00 0.00 34 1005.4
20260504185044 66 341 16.5 24.3 0.00 0.00 0.00 34 1005.3
20260504184545 65 293 7.8 26.1 0.00 0.00 0.00 34 1005.2
20260504184044 66 317 13.9 26.9 0.00 0.00 0.00 33 1005.2
20260504183544 66 323 15.6 28.7 0.00 0.00 0.00 34 1005.3
20260504183043 66 324 13.0 27.8 0.00 0.00 0.00 34 1005.1
20260504182542 66 337 16.5 24.3 0.00 0.00 0.00 32 1005.1
20260504182044 67 323 11.3 21.7 0.00 0.00 0.00 33 1005.0
20260504181541 67 349 14.8 25.2 0.00 0.00 0.00 33 1004.9
20260504181041 66 314 10.4 25.2 0.00 0.00 0.00 35 1005.0
20260504180539 67 323 14.8 22.6 0.00 0.00 0.00 35 1004.9
20260504180040 66 336 11.3 22.6 0.00 0.00 0.00 36 1004.9
20260504175538 66 330 14.8 22.6 0.00 0.00 0.00 35 1004.9
20260504175038 66 358 13.0 22.6 0.00 0.00 0.00 36 1004.9
20260504174538 66 327 15.6 22.6 0.00 0.00 0.00 35 1004.9
20260504174038 66 307 10.4 21.7 0.00 0.00 0.00 37 1004.8
20260504173537 66 295 8.7 21.7 0.00 0.00 0.00 36 1004.8
20260504173040 66 6 15.6 21.7 0.00 0.00 0.00 36 1004.9
20260504172536 66 13 13.9 21.7 0.00 0.00 0.00 35 1004.8
20260504172036 66 352 7.8 20.9 0.00 0.00 0.00 36 1004.8
20260504171537 66 306 13.9 20.9 0.00 0.00 0.00 36 1004.8
20260504171035 66 25 9.6 17.4 0.00 0.00 0.00 37 1004.8
20260504170534 65 315 12.2 21.7 0.00 0.00 0.00 38 1004.7
20260504151019 64 346 13.9 20.9 0.00 0.00 0.00 47 1002.8
20260504150520 63 345 13.9 21.7 0.00 0.00 0.00 48 1002.8
20260504141014 61 303 13.9 26.9 0.00 0.00 0.00 57 1002.8
20260504140514 62 323 16.5 22.6 0.00 0.00 0.00 57 1002.6
20260504130502 56 132 0.9 2.6 0.00 0.00 0.00 63 1002.0
20260504110543 47 148 0.9 2.6 0.00 0.00 0.00 75 1002.1
20260504100536 49 229 1.7 2.6 0.00 0.00 0.00 72 1002.9
20260504081530 49 159 0.9 1.7 0.00 0.00 0.00 73 1003.5
20260504081026 49 158 0.0 3.5 0.00 0.00 0.00 73 1003.6
20260504080525 49 159 1.7 3.5 0.00 0.00 0.00 73 1003.6
20260504050559 51 162 2.6 3.5 0.00 0.00 0.00 68 1006.1
20260504045557 52 167 1.7 2.6 0.00 0.00 0.00 66 1006.1
20260504045055 52 148 0.9 2.6 0.00 0.00 0.00 63 1006.2
20260504044557 52 148 0.9 1.7 0.00 0.00 0.00 62 1006.0
20260504044054 52 148 0.9 2.6 0.00 0.00 0.00 61 1006.1
20260504043654 52 148 0.9 2.6 0.00 0.00 0.00 61 1006.2
20260504043058 52 148 0.9 1.7 0.00 0.00 0.00 62 1006.2
20260504042554 53 148 0.0 2.6 0.00 0.00 0.00 61 1006.1
20260504042053 53 148 0.0 0.0 0.00 0.00 0.00 61 1006.1
20260504041551 53 158 0.0 0.0 0.00 0.00 0.00 61 1006.4
20260504041051 53 158 0.0 0.0 0.00 0.00 0.00 59 1006.4
20260504040551 53 158 0.0 0.0 0.00 0.00 0.00 61 1006.4
20260504040053 54 158 0.0 0.0 0.00 0.00 0.00 60 1006.6
20260504035551 54 158 0.0 0.0 0.00 0.00 0.00 58 1006.7
20260504035049 55 158 0.0 0.0 0.00 0.00 0.00 59 1006.7
20260504034556 55 158 0.0 0.0 0.00 0.00 0.00 57 1006.8
20260504034053 55 158 0.0 0.0 0.00 0.00 0.00 57 1006.9
20260504033548 55 158 0.0 0.0 0.00 0.00 0.00 56 1007.0
20260504033048 55 158 0.0 0.0 0.00 0.00 0.00 57 1007.1
20260504032550 55 158 0.0 0.0 0.00 0.00 0.00 58 1007.0
20260504032048 55 158 0.0 0.0 0.00 0.00 0.00 58 1007.1
20260504031548 56 158 0.0 0.0 0.00 0.00 0.00 57 1007.1
20260504031047 56 158 0.0 0.0 0.00 0.00 0.00 56 1007.1
20260504030550 57 158 0.0 0.0 0.00 0.00 0.00 55 1007.1
20260504030047 57 158 0.0 0.0 0.00 0.00 0.00 53 1007.1
20260504025547 57 158 0.0 0.0 0.00 0.00 0.00 53 1007.1
20260504025047 58 158 0.0 0.9 0.00 0.00 0.00 52 1007.0
20260504024551 58 158 0.0 0.9 0.00 0.00 0.00 52 1007.1
20260504024046 58 158 0.0 0.9 0.00 0.00 0.00 52 1007.0
20260504023546 59 158 0.0 1.7 0.00 0.00 0.00 51 1007.0
20260504023046 59 158 0.9 1.7 0.00 0.00 0.00 49 1006.9
20260504022548 60 158 0.0 2.6 0.00 0.00 0.00 48 1006.9
20260504022046 60 143 1.7 2.6 0.00 0.00 0.00 47 1007.0
20260504021551 61 243 1.7 2.6 0.00 0.00 0.00 47 1007.0
20260504021049 61 243 0.9 1.7 0.00 0.00 0.00 47 1007.0
20260504020547 62 243 0.9 1.7 0.00 0.00 0.00 47 1007.0
20260504020044 63 243 0.9 1.7 0.00 0.00 0.00 46 1007.1
20260504015544 63 243 0.9 1.7 0.00 0.00 0.00 44 1007.1
20260504015044 64 243 0.9 1.7 0.00 0.00 0.00 43 1007.1
20260504014544 65 243 0.0 1.7 0.00 0.00 0.00 41 1007.3
20260504014044 66 243 0.9 1.7 0.00 0.00 0.00 39 1007.2
20260504013543 66 243 0.9 2.6 0.00 0.00 0.00 39 1007.2
20260504013056 67 243 0.9 2.6 0.00 0.00 0.00 39 1007.2
20260504012543 67 242 0.9 3.5 0.00 0.00 0.00 38 1007.3
20260504012046 68 258 1.7 3.5 0.00 0.00 0.00 38 1007.3
20260504011543 68 255 1.7 7.0 0.00 0.00 0.00 37 1007.4
20260504011041 69 250 3.5 7.0 0.00 0.00 0.00 36 1007.4
20260504010541 70 280 4.3 6.1 0.00 0.00 0.00 35 1007.4
20260504010042 70 264 4.3 6.1 0.00 0.00 0.00 34 1007.5
20260504005541 70 275 3.5 7.0 0.00 0.00 0.00 35 1007.5
20260504005039 71 262 3.5 7.0 0.00 0.00 0.00 34 1007.6
20260504004538 71 265 4.3 8.7 0.00 0.00 0.00 34 1007.6
20260504004040 71 277 5.2 9.6 0.00 0.00 0.00 33 1007.7
20260504003537 71 265 5.2 9.6 0.00 0.00 0.00 33 1007.7
20260504003039 72 257 5.2 8.7 0.00 0.00 0.00 33 1007.7
20260504002536 72 281 4.3 8.7 0.00 0.00 0.00 32 1007.8
20260504002036 72 259 1.7 8.7 0.00 0.00 0.00 35 1007.9
20260504001538 72 276 4.3 8.7 0.00 0.00 0.00 32 1008.0
20260504001036 72 287 3.5 8.7 0.00 0.00 0.00 32 1008.0
20260504000534 72 311 4.3 9.6 0.00 0.00 0.00 33 1008.0
20260504000035 72 299 4.3 9.6 0.00 0.00 0.00 32 1008.0
20260503235534 72 278 4.3 10.4 0.00 0.00 0.00 31 1008.0
20260503235033 72 250 6.1 10.4 0.00 0.00 0.00 31 1008.2
20260503234532 72 275 6.1 12.2 0.00 0.00 0.00 31 1008.2
20260503234032 72 259 7.0 12.2 0.00 0.00 0.00 30 1008.3
20260503233531 72 276 6.1 13.0 0.00 0.00 0.00 31 1008.3
20260503233031 72 281 8.7 14.8 0.00 0.00 0.00 30 1008.5
20260503232531 72 268 7.0 14.8 0.00 0.00 0.00 30 1008.4
20260503232032 72 294 6.1 12.2 0.00 0.00 0.00 31 1008.4
20260503231532 72 259 7.0 12.2 0.00 0.00 0.00 31 1008.5
20260503231032 72 276 5.2 11.3 0.00 0.00 0.00 33 1008.4
20260503230530 72 305 3.5 14.8 0.00 0.00 0.00 33 1008.5
20260503230040 72 294 7.0 14.8 0.00 0.00 0.00 33 1008.6
20260503225529 72 257 6.1 13.9 0.00 0.00 0.00 31 1008.6
20260503225031 72 270 9.6 13.9 0.00 0.00 0.00 31 1008.6
20260503224529 72 280 4.3 13.0 0.00 0.00 0.00 32 1008.6
20260503224027 72 242 7.8 13.0 0.00 0.00 0.00 32 1008.7
20260503223527 72 295 0.9 13.0 0.00 0.00 0.00 31 1008.6
20260503223026 72 300 5.2 13.0 0.00 0.00 0.00 31 1008.7
20260503222525 72 332 6.1 13.0 0.00 0.00 0.00 31 1008.8
20260503222024 72 293 5.2 11.3 0.00 0.00 0.00 32 1008.8
20260503221527 72 300 6.1 11.3 0.00 0.00 0.00 31 1008.8
20260503221024 72 304 6.1 14.8 0.00 0.00 0.00 31 1008.9
20260503220526 72 281 10.4 14.8 0.00 0.00 0.00 30 1008.9
20260503220024 72 293 5.2 10.4 0.00 0.00 0.00 33 1009.0
20260503215522 72 268 6.1 10.4 0.00 0.00 0.00 31 1009.0
20260503215023 72 270 5.2 13.9 0.00 0.00 0.00 31 1009.0
20260503214535 72 278 7.0 17.4 0.00 0.00 0.00 32 1009.1
20260503214024 72 279 7.8 17.4 0.00 0.00 0.00 33 1009.0
20260503213521 72 258 8.7 14.8 0.00 0.00 0.00 33 1009.1
20260503213020 72 282 8.7 14.8 0.00 0.00 0.00 33 1009.2
20260503212523 72 285 7.8 13.9 0.00 0.00 0.00 34 1009.2
20260503212018 72 300 5.2 13.9 0.00 0.00 0.00 34 1009.4
20260503211517 72 295 6.1 13.9 0.00 0.00 0.00 34 1009.4
20260503211018 72 325 8.7 14.8 0.00 0.00 0.00 33 1009.4
20260503210516 72 302 6.1 14.8 0.00 0.00 0.00 32 1009.7
20260503210016 71 342 8.7 13.9 0.00 0.00 0.00 32 1009.8
20260503205515 72 297 7.0 13.0 0.00 0.00 0.00 34 1009.8